www.pogodaiklimat.ru

Погода и климат >> Архив погоды >> Аргентина >> Пресиденсиа-Роке-Саэнс-Пенья


ПОГОДА в Пресиденсиа-Роке-Саэнс-Пеньи

  • Прогноз погоды в Пресиденсиа-Роке-Саэнс-Пеньи
  • Монитор погоды в Пресиденсиа-Роке-Саэнс-Пеньи

АРХИВ ПОГОДЫ в Пресиденсиа-Роке-Саэнс-Пеньи

Время (UTC), дата Ветер
(напр.,м/с)
 
Видим.   Явления Облачность Т
(С)
Тd
(С)
f
(%)
Тe
(С)
Тes
(С)
Комфортность P
(гПа)
Po
(гПа)
Тmin
(С)
Tmax
(С)
R
(мм)
R24
(мм)
S
(см)
12 11.02 С 6
{9}
20 км 5/0
[Ci]
+27.9 +23.1 75 +37 +40 очень
душно
999.0 988.6 +24.6 +27.9
15 11.02 С 3 20 км 6/0
[Ac cast Cs]
+33.9 +26.2 64 +50 +62 опасность
перегрева
1001.3 991.0
18 11.02 Ю 2 20 км гроза, ливневой дождь туман 9/5 1050 м
[Cb cap As op Cs]
+35.5 +27.4 63 +54 +60 опасность
перегрева
1000.2 989.8
21 11.02 Ю 3
{10}
20 км гроза без осадков туман 10/6 900 м
[Cb cap As op]
+24.0 +23.0 94 +32 +32 очень
душно
1002.2 991.7
00 12.02 Ю 3 20 км зарница {гроза} 10/5 900 м
[Cb cap Ac As]
+26.9 +25.2 90 +39 +39 очень
душно
1004.7 994.2 +24.0 +36.1 11
03 12.02 Ю 3 20 км зарница 10/5 750 м
[Cb cap Ac As]
+25.2 +22.7 86 +33 +33 очень
душно
1007.4 997.0
06 12.02 ЮЗ 1 3000 м гроза, ливневой дождь туман 10/5 240 м
[Cb cap As op]
+24.4 +23.4 94 +33 +33 очень
душно
1009.7 999.3 2
09 12.02 Ю 3 3000 м слаб. дождь {гроза} 10/6 240 м
[St As op]
+23.6 +22.9 96 +31 +31 очень
душно
1012.6 1002.0
12 12.02 Ю 5
{9}
1500 м дождь {гроза} 10/3 150 м
[Frnb As op]
+20.9 +20.3 96 +26 +26 душно 1017.0 1006.2 +20.9 +26.9 21
15 12.02 Ю 5
{9}
3000 м слаб. дождь 10/9 210 м
[St As op]
+19.4 +19.1 98 +22 +22 комфорт 1019.2 1008.4
18 12.02 Ю 5 4000 м слаб. дождь {морось} туман 10/6 210 м
[St As op]
+18.9 +17.8 93 +20 +21 1019.0 1008.2 9
21 12.02 Ю 4 20 км {дождь} 9/3 450 м
[Sc Ac As Cs]
+21.0 +17.0 78 +25 +26 комфорт 1017.3 1006.6
00 13.02 Ю 3 20 км {дождь} 5/0
[Cs]
+19.0 +16.2 84 +21 +21 комфорт 1017.0 1006.2 +18.5 +21.5 0.2
03 13.02 Ю 2 20 км ясно +17.4 +16.2 93 +18 +18 1018.4 1007.4
06 13.02 Ю 2 20 км ясно +15.6 +15.4 99 +16 +16 1016.4 1005.4
09 13.02 Ю 2 20 км ясно +15.2 +14.9 98 +15 +15 1015.4 1004.5
12 13.02 Ю 3 20 км 1/0
[Cs]
+19.4 +15.9 80 +22 +27 комфорт 1015.5 1004.6 +15.0 +19.4 9
15 13.02 ЮВ 2 20 км ясно +24.0 +15.9 61 +27 +47 жарко 1014.5 1003.7
18 13.02 ЮЗ 3 20 км 1/0
[Cs]
+26.8 +17.0 55 +31 +45 душно 1011.0 1000.2
21 13.02 ЮВ 3 20 км ясно +26.9 +15.8 51 +30 +32 душно 1009.1 998.4
00 14.02 Ю 1 20 км ясно +22.3 +18.7 80 +28 +28 душно 1009.6 998.9 +19.4 +27.6
03 14.02 Ю 2 20 км 4/0
[Cs]
+18.7 +18.1 96 +20 +20 1011.2 1000.5
06 14.02 ЮЗ 2 20 км 6/0
[Ac As]
+18.8 +18.2 96 +21 +21 комфорт 1011.1 1000.5
09 14.02 Ю 1 20 км 9/0
[Ac As Cs]
+18.9 +17.6 92 +21 +21 комфорт 1010.5 999.8
12 14.02 З 2 20 км 8/0
[Ac As]
+20.5 +18.1 86 +25 +27 комфорт 1011.4 1000.6 +18.5 +22.3
15 14.02 СЗ 1 20 км 6/0
[Ac trans]
+26.7 +18.3 60 +31 +46 душно 1010.4 999.8
18 14.02 ЮЗ 4 20 км 1/1 600 м
[Cu hum]
+28.7 +18.7 55 +34 +43 очень
душно
1008.9 998.2
21 14.02 ЮЗ 4 20 км 5/5 600 м
[Cu hum]
+28.5 +19.0 56 +34 +35 очень
душно
1007.6 997.0
00 15.02 Ю 2 20 км 3/0
[Ac As]
+24.0 +18.4 71 +28 +28 душно 1008.6 998.0 +20.5 +30.0
03 15.02 штиль 0 20 км 5/0
[Ac As]
+20.0 +18.9 93 +23 +23 комфорт 1010.3 999.7
06 15.02 Ю 2 20 км 3/0
[Ac As]
+19.6 +18.5 93 +23 +23 комфорт 1009.2 998.6
09 15.02 Ю 2 20 км 1/0
[Ac trans]
+18.8 +18.0 95 +21 +21 комфорт 1009.4 998.8
12 15.02 ЮЗ 4 20 км ясно +22.3 +19.4 84 +28 +32 душно 1010.2 999.6 +17.6 +24.0
15 15.02 Ю 5
{10}
20 км 6/6 750 м
[Cu hum]
+25.9 +18.8 65 +31 +35 очень
душно
1010.3 999.7
18 15.02 Ю 5 20 км 6/6 750 м
[Cu hum]
+27.6 +19.0 59 +33 +37 очень
душно
1009.2 998.6
21 15.02 Ю 5 20 км 3/3 750 м
[Cu hum]
+27.9 +17.2 52 +32 +33 душно 1008.0 997.4
00 16.02 ЮЗ 3 20 км ясно +22.0 +18.4 80 +27 +27 душно 1008.9 998.2 +22.0 +29.0
03 16.02 Ю 3 20 км ясно +19.7 +17.8 89 +23 +23 комфорт 1010.1 999.4
06 16.02 ЮЗ 2 20 км ясно +17.9 +17.1 95 +18 +18 1009.8 999.2
09 16.02 Ю 3 20 км ясно +18.0 +17.3 96 +18 +18 1009.5 998.9
12 16.02 Ю 3 20 км ясно +22.5 +19.4 83 +29 +34 очень
душно
1010.9 1000.2 +17.8 +22.5
15 16.02 Ю 4 20 км 1/1 1050 м
[Cu hum]
+27.1 +18.8 60 +32 +44 очень
душно
1010.4 999.8
18 16.02 Ю 5 20 км 3/3 600 м
[Cu hum]
+29.0 +18.4 53 +34 +41 очень
душно
1008.5 997.8
21 16.02 Ю 4 20 км 3/3 900 м
[Cu hum]
+28.7 +17.8 52 +33 +34 очень
душно
1007.2 996.6
00 17.02 Ю 1 20 км ясно +23.3 +19.6 80 +30 +30 очень
душно
1007.8 997.2 +22.5 +30.3
03 17.02 Ю 2 20 км ясно +22.0 +19.5 86 +28 +28 душно 1008.9 998.2
06 17.02 ЮЗ 2 20 км ясно +19.7 +18.9 95 +23 +23 комфорт 1008.1 997.4
09 17.02 ЮЗ 2 20 км ясно +19.2 +18.9 98 +22 +22 комфорт 1007.6 997.0
12 17.02 Ю 3 20 км ясно +24.1 +21.4 85 +31 +36 очень
душно
1008.4 997.8 +19.1 +24.1
15 17.02 Ю 3 20 км 5/5 450 м
[Cu hum]
+29.5 +21.9 64 +38 +46 очень
душно
1007.7 997.2
18 17.02 Ю 3 20 км 5/5 600 м
[Cu hum]
+31.1 +21.3 56 +39 +46 очень
душно
1006.3 995.8
21 17.02 Ю 3 20 км 3/3 750 м
[Cu med, cong]
+31.1 +20.7 54 +38 +40 очень
душно
1004.4 993.8
00 18.02 Ю 2 20 км ясно +26.8 +22.1 75 +35 +35 очень
душно
1005.2 994.6 +24.1 +32.2
03 18.02 В 2 20 км ясно +24.9 +21.9 83 +32 +32 очень
душно
1006.2 995.8
06 18.02 штиль 0 20 км ясно +21.2 +20.4 95 +26 +26 душно 1004.9 994.4

 

Местоположение метеостанции Пресиденсиа-Роке-Саэнс-Пенья (Аргентина): широта -26.73 долгота -60.48 высота над уровнем моря 93 м.

В архиве по умолчанию представлена погода в Пресиденсиа-Роке-Саэнс-Пеньи за последнюю неделю. Архивные данные за месяц целиком и за предыдущие месяцы, начиная с января 2011 года, Вы можете получить, выбрав интересующий диапазон дат из раскрывающегося списка и нажав кнопку "Ввод!".


*Определитесь, кто Вы:
робот инопланетянин человек

Внимание! Время в таблицах - всемирное. Для получения местного времени необходимо прибавить поправку, которая равна -3 ч.

Смотрите также архив погоды в соседних городах и на ближайших метеорологических станциях:

Погода в Ресистенсии (Аргентина) (163 км)
Погода в Корриентесе (Аргентина) (188 км)
Погода в Пиларе (Парагвай) (216 км)
Погода в Лас-Ломитасе (Аргентина) (226 км)
Погода в Формосе (Аргентина) (232 км)
Погода в Грал Бругуез (Парагвай) (274 км)
Погода в Реконкисте (Аргентина) (283 км)
Погода в Сан Хуан Батистута (Парагвай) (331 км)
Погода в Асунсьоне (Парагвай) (339 км)
Погода в Куйкуйо (Парагвай) (353 км)

Пояснения к столбцам:

Ветер - указаны скорость ветра в м/с - средняя за 10 мин, порывы в срок и между сроками (в фигурных скобках) и направление, откуда дует ветер: С - северный, СВ - северо-восточный, В - восточный, ЮВ - юго-восточный, Ю - южный, ЮЗ - юго-западный, З - западный, СЗ - северо-западный.
Видимость - горизонтальная дальность видимости в метрах или километрах. При видимости от 1 до 10 км при отсутствии осадков обычно наблюдается дымка, при ухудшении видимости до 1 км и менее - туман. В сухую погоду видимость может ухудшаться дымом, пылью или мглою.
Явления - указаны атмосферные явления, наблюдавшиеся в срок или в последний час перед сроком; фигурными скобками обозначены явления, наблюдавшиеся между сроками (за 1-3 часа до срока); квадратными скобками обозначены град или гололедные отложения с указанием их диаметра в мм.
Облачность - указаны через наклонную черту общая и нижняя облачность в баллах и высота нижней границы облаков в метрах; квадратными скобками обозначены формы облаков: Ci - перистые, Cs - перисто-слоистые, Cc - перисто-кучевые, Ac - высококучевые, As - высокослоистые, Sc - слоисто-кучевые, Ns - слоисто-дождевые, Cu - кучевые, Cb - кучево-дождевые. Подробнее классификацию облаков см. в Атласе облаков (PDF).
T - Температура воздуха - температура, измеренная на высоте 2 м над землей.
Td - Температура точки росы - температура, при понижении до которой содержащийся в воздухе водяной пар достигнет насыщения.
f - Относительная влажность воздуха - влажноcть воздуха, измеренная на высоте 2 м над землей.
Te - Эффективная температура - температура, которую ощущает одетый по сезону человек в тени. Характеристика душности погоды. При расчете учитывается влияние влажности воздуха и скорости ветра на теплоощущения человека.
Tes - Эффективная температура на солнце - температура, которую ощущает человек, с поправкой на солнечный нагрев. Характеристика знойности погоды. Зависит от высоты солнца над горизонтом, облачности и скорости ветра. Ночью, в пасмурную погоду, а также при ветре 12 м/с и более поправка равна нулю.
P - Атмосферное давление - приведенное к уровню моря атмосферное давление.
Po - Атмосферное давление - измеренное на уровне метеостанции атмосферное давление.
Tmin - Минимальная температура - минимум температуры воздуха на высоте 2 м над землей.
Tmax - Максимальная температура - максимум температуры воздуха на высоте 2 м над землей.
R - Количество осадков - Количество выпавших осадков за период времени, мм. При наведении курсора мыши на число - период времени, за который выпало указанное количество осадков.
R24 - Количество осадков - Количество выпавших осадков за 24 часа, мм.
S - Снежный покров - Высота снежного покрова, см. При наведении курсора мыши на число - состояние снежного покрова и степень покрытия местности в баллах.